Location: Audinghen
(50.8518°N, 1.6129°E)
Time: 05:32:23
(UTC+00:00)

FALCON 9 DEB - Pass Details

Date: 07 August 2020
Orbit: 427 x 441 km, 53.0° (Epoch: 23 September)

Event Time Altitude Azimuth Distance (km) Brightness Sun altitude
Exits shadow 00:15:25 54° 35° (NE) 545 3.8 -22.7°
Drops below altitude 10° 00:18:24 10° 75° (ENE) 1,559 6.1 -22.7°
Sets 00:20:33 0° 79° (E) 2,427 7.1 -22.6°
